Location: Newark
(45.8667°N, 9.7333°E)
Time: 17:26:47
(UTC+00:00)

Transit 4A - Pass Details

Date: 26 January 2020
Orbit: 872 x 973 km, 66.8° (Epoch: 22 February)

Event Time Altitude Azimuth Distance (km) Brightness Sun altitude
Rises 11:40:02 0° 328° (NNW) 3,481 10.4 25.3°
Reaches altitude 10° 11:43:59 10° 354° (N) 2,532 9.7 25.3°
Maximum altitude 11:46:51 14° 24° (NNE) 2,271 9.5 25.3°
Drops below altitude 10° 11:49:43 10° 54° (NE) 2,528 9.9 25.3°
Sets 11:53:38 0° 80° (E) 3,470 10.7 25.2°
